Powrót do katalogu

FENGYUN 1C DEB

AktywnyPO
NORAD 29901·DEBRIS·🇨🇳 China

Wystrzelony May 10, 1999 z Taiyuan Satellite Launch Center

Loading…

Następne Przeloty (najbliższe 24 godziny)

TLE

ŚwieżeSource: Space-Track

Epoka: Sep 13, 2026, 20:42 UTC

1 29901U 99025GX  26256.86299015  .00000172  00000-0  28501-3 0  9996
2 29901  98.7833  33.4912 0377734 320.2434 168.1781 13.33404812955855

Śledź FENGYUN 1C DEB w czasie rzeczywistym z AllMySat

Download on the App Store